This is the latest recevied weather packets stored in our database for station/object WB5LJZ-5. If no packets are shown the sender has not sent any weather packets the latest 10 day(s).
| Time | Temp. | Humidity | Pressure | Rain* | Wind** | Luminosity | Snow |
|---|---|---|---|---|---|---|---|
| 1777665347 | 18.89° C | - | - | 0.51 mm | 3.58 m/s, 338° | - | - |
| 1777664711 | 18.89° C | - | - | 0.51 mm | 3.58 m/s, 326° | - | - |
| 1777664075 | 18.89° C | - | - | 0.25 mm | 3.58 m/s, 326° | - | - |
| 1777663440 | 18.89° C | - | - | 0.25 mm | 4.47 m/s, 21° | - | - |
| 1777662804 | 18.89° C | - | - | 0.25 mm | 4.92 m/s, 359° | - | - |
| 1777662168 | 18.89° C | - | - | 0.25 mm | 7.15 m/s, 20° | - | - |
| 1777661532 | 18.89° C | - | - | 0.25 mm | 4.92 m/s, 35° | - | - |
| 1777660896 | 19.44° C | - | - | 5.84 mm | 1.79 m/s, 0° | - | - |
| 1777660261 | 18.89° C | - | - | 5.84 mm | 7.15 m/s, 11° | - | - |
| 1777659625 | 18.33° C | - | - | 5.84 mm | 5.36 m/s, 11° | - | - |
| 1777658989 | 18.33° C | - | - | 5.84 mm | 0 m/s | - | - |
| 1777658353 | 17.78° C | - | - | 5.84 mm | 0 m/s | - | - |
| 1777657718 | 16.67° C | - | - | 5.84 mm | 0 m/s | - | - |
| 1777657082 | 16.67° C | - | - | 1.27 mm | 0 m/s | - | - |
| 1777656446 | 17.22° C | - | - | 1.27 mm | 0 m/s | - | - |
| 1777655810 | 17.22° C | - | - | 1.27 mm | 0 m/s | - | - |
| 1777655174 | 17.78° C | - | - | 1.27 mm | 0 m/s | - | - |
| 1777654539 | 17.78° C | - | - | 1.27 mm | 0 m/s | - | - |
| 1777653904 | 17.22° C | - | - | 1.27 mm | 3.58 m/s, 10° | - | - |
| 1777653267 | 16.67° C | - | - | 0 mm | 0 m/s | - | - |
| 1777651996 | 17.22° C | - | - | 0 mm | 5.81 m/s, 10° | - | - |
| 1777651361 | 17.22° C | - | - | 0 mm | 7.15 m/s, 45° | - | - |
| 1777650724 | 17.22° C | - | - | 0 mm | 4.47 m/s, 70° | - | - |
| 1777650088 | 17.22° C | - | - | 0.25 mm | 6.71 m/s, 28° | - | - |
| 1777649452 | 17.22° C | - | - | 0.25 mm | 5.81 m/s, 35° | - | - |
* Rain latest hour (hover to see other rain measurements)
** Current wind speed in m/s (hover to see current wind gust speed)